Weather History for Shaw AFB, SC

Change the Weather History Date:

Friday, September 20, 2013

  Actual Average Record
Temperature  
Mean Temperature 75 °F -  
Max Temperature 87 °F 80 °F 95 °F (1997)
Min Temperature 63 °F 61 °F 51 °F (2004)
Cooling Degree Days 10    
Growing Degree Days 25 (Base 50)    
Moisture  
Dew Point 64 °F    
Average Humidity 73    
Maximum Humidity 95    
Minimum Humidity 44    
Precipitation  
Precipitation 0.00 in - - ()
Sea Level Pressure  
Sea Level Pressure 30.02 in    
Wind  
Wind Speed 3 mph (South)    
Max Wind Speed 9 mph    
Max Gust Speed -    
Visibility 10 miles    
Events      
Averages and records for this station are not official NWS values.
T = Trace of Precipitation, MM = Missing Value Source: NWS Daily Summary

Daily Weather History Graph

Daily Weather History Graph

Search for Another Location

Airport:

Trip Planner

Search our weather history database for the weather conditions in past years. The results will help you decide how hot, cold, wet, or windy it might be!

Date:

Astronomy

Sep. 20, 2013 Rise Set
Actual Time 7:08 AM EDT 7:21 PM EDT
Civil Twilight 6:43 AM EDT 7:46 PM EDT
Nautical Twilight 6:14 AM EDT 8:15 PM EDT
Astronomical Twilight 5:45 AM EDT 8:44 PM EDT
Moon 8:00 PM EDT (9/20) 8:16 AM EDT (9/20)
Length of Visible Light 13h 02m
Length of Day
12h 12m
Full, 98% of the Moon is Illuminated
Sep 20
Full
Sep 26
Last Quarter
Oct 4
New
Oct 11
First Quarter
Oct 18
Full

Hourly Weather History & Observations

Time (EDT) Temp. Heat Index Dew Point Humidity Pressure Visibility Wind Dir Wind Speed Gust Speed Precip Events Conditions
12:58 AM 65.8 °F - 61.9 °F 87% 30.07 in 10.0 mi Calm Calm - N/A   Clear
1:58 AM 63.0 °F - 60.1 °F 90% 30.08 in 10.0 mi ENE 4.6 mph - N/A   Clear
2:58 AM 65.3 °F - 61.9 °F 89% 30.08 in 10.0 mi Calm Calm - N/A   Scattered Clouds
3:58 AM 65.1 °F - 62.1 °F 90% 30.07 in 10.0 mi SSE 1.2 mph - N/A   Scattered Clouds
4:58 AM 64.6 °F - 61.9 °F 91% 30.06 in 10.0 mi SSW 2.3 mph - N/A   Clear
5:58 AM 63.5 °F - 61.9 °F 94% 30.06 in 10.0 mi SE 3.5 mph - N/A   Clear
6:58 AM 63.7 °F - 61.9 °F 94% 30.08 in 10.0 mi ESE 1.2 mph - N/A   Clear
7:58 AM 63.9 °F - 62.4 °F 95% 30.08 in 10.0 mi SSW 3.5 mph - N/A   Clear
8:58 AM 70.9 °F - 66.6 °F 86% 30.08 in 10.0 mi West 9.2 mph - N/A   Partly Cloudy
9:58 AM 76.1 °F - 66.4 °F 72% 30.08 in 10.0 mi WSW 8.1 mph - N/A   Mostly Cloudy
10:58 AM 77.9 °F - 65.5 °F 65% 30.07 in 10.0 mi West 6.9 mph - N/A   Mostly Cloudy
11:58 AM 81.1 °F 82.7 °F 63.9 °F 56% 30.05 in 10.0 mi Variable 6.9 mph - N/A   Clear
12:58 PM 83.5 °F 85.3 °F 65.3 °F 54% 30.04 in 10.0 mi Variable 3.5 mph - N/A   Clear
1:58 PM 83.8 °F 85.1 °F 63.7 °F 51% 30.01 in 10.0 mi West 3.5 mph - N/A   Scattered Clouds
2:58 PM 85.8 °F 87.1 °F 64.0 °F 48% 29.98 in 10.0 mi Variable 4.6 mph - N/A   Scattered Clouds
3:58 PM 87.1 °F 87.8 °F 62.6 °F 44% 29.96 in 10.0 mi South 3.5 mph - N/A   Mostly Cloudy
4:58 PM 85.8 °F 86.1 °F 61.9 °F 44% 29.95 in 10.0 mi SSW 4.6 mph - N/A   Mostly Cloudy
5:58 PM 82.8 °F 84.7 °F 65.8 °F 56% 29.94 in 10.0 mi South 6.9 mph - N/A   Overcast
6:58 PM 81.1 °F 83.2 °F 66.2 °F 60% 29.93 in 10.0 mi South 8.1 mph - N/A   Overcast
7:58 PM 77.9 °F - 66.4 °F 68% 29.94 in 10.0 mi South 4.6 mph - N/A   Mostly Cloudy
8:58 PM 75.6 °F - 66.9 °F 74% 29.95 in 10.0 mi SSE 4.6 mph - N/A   Partly Cloudy
9:58 PM 73.9 °F - 67.1 °F 79% 29.96 in 10.0 mi South 5.8 mph - N/A   Clear
10:58 PM 72.1 °F - 66.7 °F 83% 29.96 in 10.0 mi SSE 4.6 mph - N/A   Clear
11:58 PM 70.5 °F - 66.4 °F 87% 29.96 in 10.0 mi SSW 5.8 mph - N/A   Clear